Погода в Денисово

Россия / Санкт-Петербург и Ленинградская область     60°31′26″N   30°32′56″E
темп.,
°C
ветер,
м/с
пор.,
м/с
влажн.,
%
обл.,
%
осадки,
мм/ч
давл.,
гПа
погр.,
м
1 марта, пн
пн100:00−1зюз269612 0.0 1019146
03:000зюз4119414 0.0 1020349
06:00+2з4109390 0.0 1017375
09:00+1з4119293 0.0 1017401
12:00+3з51286100 0.0 1014564
15:00+4з61485100 0.0 1013628
18:00+3з61576100 0.0 1010703
21:00+3зсз6138390 0.0 1010966
2 марта, вт
вт200:00+2зсз5148779 0.1 1010775
03:000з5138445 0.1 1010624
06:00−1з513850 0.0 1009597
09:00−1зсз6138517 0.0 1010610
12:00+1сз611770 0.0 1011766
15:00+2сз612724 0.0 10131155
18:00+1сз412761 0.0 10151069
21:00−1сз412830 0.0 1017602
3 марта, ср
ср300:00−1зсз511835 0.0 1017426
03:00−1зсз513842 0.0 1017511
06:00−2зсз513870 0.0 1015516
09:00−2зсз512870 0.0 1015457
12:00+1з510824 0.0 1013494
15:00+1з598150 0.0 1012654
18:00+1зюз41183100 0.0 1007618
21:00+1зюз61487100 0.6 1002935
4 марта, чт
чт400:00+2з61385100 0.0 9991035
03:000зсз4127199 0.5 999785
06:00−3зсз5127639 0.0 998754
09:00−4сз6127520 0.0 998856
12:00−3сз597564 0.0 999793
15:00−3ссз587681 0.1 1001918
18:00−4ссз4878100 0.1 10021007
21:00−5ссз4878100 0.4 1003944
5 марта, пт
пт500:00−6сз4782100 0.1 1004656
03:00−7сз378799 0.1 1005578
06:00−7сз378199 0.1 1006550
09:00−8зсз368361 0.1 1006408
12:00−6сз357798 0.1 1008702
15:00−5с247999 0.3 1010575
18:00−7с5884100 0.3 1011714
21:00−9ссв3777100 0.4 1013815